Location: Unspecified
(35.6895°N, 139.6917°E)
Time: 01:27:23
(UTC+00:00)

ASTRO H - Pass Details

Date: 04 October 2021
Orbit: 561 x 579 km, 31.0° (Epoch: 22 October)

Event Time Altitude Azimuth Distance (km) Brightness Sun altitude
Rises 10:59:44 0° 249° (WSW) 2,733 ? -32.6°
Reaches altitude 10° 11:02:07 10° 242° (WSW) 1,837 ? -33.0°
Enters shadow 11:02:17 11° 241° (WSW) 1,775 ? -33.1°
